QPF
0.01 0.00 0.00 0.00 0.00 0.00 0.00 0.00 0.00 0.00 0.00 0.00 0.00 0.00 0.00 0.00 0.00 0.00 0.00 0.00 0.00 0.00 0.00 0.00 0.00 0.01 0.01 0.01 0.02 0.02 0.03 0.04 0.04 0.05 0.05 0.06 0.06 0.07
0.01 0.00 0.00 0.00 0.00 0.00 0.00 0.00 0.00 0.00 0.00 0.00 0.00 0.00 0.00 0.00 0.00 0.00 0.00 0.00 0.00 0.00 0.00 0.00 0.00 0.01 0.01 0.01 0.02 0.02 0.03 0.03 0.04 0.05 0.06 0.07 0.08 0.08
0.00 0.00 0.00 0.00 0.00 0.00 0.00 0.00 0.00 0.00 0.00 0.00 0.00 0.00 0.00 0.00 0.00 0.00 0.00 0.00 0.00 0.00 0.00 0.00 0.00 0.01 0.01 0.01 0.01 0.02 0.03 0.03 0.04 0.04 0.05 0.06 0.06 0.06
0.00 0.00 0.01 0.01 0.00 0.00 0.00 0.00 0.00 0.00 0.00 0.00 0.00 0.00 0.00 0.00 0.00 0.00 0.00 0.00 0.00 0.00 0.00 0.00 0.00 0.00 0.00 0.01 0.01 0.02 0.02 0.02 0.02 0.03 0.03 0.03 0.03 0.04
0.01 0.01 0.01 0.01 0.00 0.00 0.00 0.00 0.00 0.00 0.00 0.00 0.00 0.00 0.00 0.00 0.00 0.00 0.00 0.00 0.00 0.00 0.00 0.00 0.00 0.00 0.00 0.01 0.01 0.01 0.01 0.01 0.01 0.01 0.02 0.02 0.02 0.03
0.01 0.01 0.00 0.00 0.00 0.00 0.00 0.00 0.00 0.00 0.00 0.00 0.00 0.00 0.00 0.00 0.00 0.00 0.00 0.00 0.00 0.00 0.00 0.00 0.00 0.00 0.00 0.00 0.00 0.00 0.00 0.00 0.01 0.01 0.02 0.02 0.03 0.03
0.01 0.00 0.00 0.00 0.00 0.00 0.00 0.00 0.00 0.00 0.00 0.00 0.00 0.00 0.00 0.00 0.00 0.00 0.00 0.00 0.00 0.00 0.00 0.00 0.00 0.00 0.00 0.00 0.00 0.00 0.00 0.01 0.01 0.02 0.02 0.02 0.03 0.03
0.00 0.00 0.00 0.00 0.00 0.00 0.00 0.00 0.00 0.00 0.00 0.01 0.01 0.01 0.00 0.00 0.00 0.00 0.00 0.00 0.00 0.00 0.00 0.00 0.00 0.00 0.00 0.00 0.00 0.00 0.00 0.00 0.01 0.01 0.02 0.02 0.02 0.03
0.00 0.00 0.00 0.00 0.00 0.00 0.00 0.00 0.00 0.00 0.01 0.01 0.01 0.00 0.00 0.00 0.00 0.01 0.01 0.02 0.01 0.00 0.00 0.00 0.00 0.00 0.00 0.00 0.00 0.00 0.00 0.00 0.00 0.01 0.01 0.01 0.02 0.02
0.00 0.00 0.00 0.00 0.00 0.00 0.00 0.00 0.00 0.00 0.00 0.00 0.00 0.00 0.00 0.00 0.01 0.02 0.02 0.01 0.00 0.00 0.00 0.00 0.00 0.00 0.00 0.00 0.00 0.00 0.00 0.00 0.00 0.00 0.00 0.01 0.01 0.01
0.00 0.00 0.00 0.00 0.00 0.00 0.00 0.00 0.00 0.00 0.00 0.00 0.00 0.00 0.00 0.00 0.00 0.00 0.00 0.01 0.01 0.00 0.00 0.00 0.00 0.00 0.00 0.00 0.00 0.00 0.00 0.00 0.00 0.00 0.00 0.00 0.01 0.01
0.00 0.00 0.00 0.00 0.00 0.01 0.01 0.01 0.01 0.00 0.00 0.00 0.00 0.00 0.00 0.00 0.00 0.00 0.00 0.03 0.03 0.02 0.00 0.01 0.01 0.01 0.02 0.00 0.00 0.00 0.00 0.00 0.00 0.00 0.00 0.00 0.00 0.01
0.00 0.00 0.00 0.00 0.01 0.01 0.01 0.00 0.00 0.00 0.00 0.00 0.00 0.00 0.00 0.00 0.00 0.00 0.00 0.03 0.05 0.03 0.00 0.04 0.05 0.02 0.03 0.01 0.00 0.00 0.00 0.00 0.00 0.00 0.00 0.00 0.00 0.01
0.00 0.00 0.00 0.01 0.01 0.01 0.00 0.00 0.00 0.00 0.00 0.00 0.00 0.00 0.00 0.00 0.00 0.00 0.00 0.00 0.02 0.02 0.01 0.05 0.09 0.04 0.05 0.03 0.00 0.00 0.00 0.00 0.00 0.00 0.00 0.00 0.00 0.01
0.00 0.00 0.00 0.00 0.00 0.00 0.00 0.00 0.00 0.00 0.00 0.00 0.00 0.00 0.00 0.00 0.00 0.00 0.00 0.00 0.00 0.00 0.00 0.01 0.04 0.04 0.06 0.05 0.02 0.00 0.00 0.00 0.00 0.00 0.00 0.00 0.00 0.00
0.00 0.00 0.00 0.00 0.00 0.00 0.00 0.00 0.00 0.00 0.00 0.00 0.00 0.00 0.00 0.00 0.00 0.00 0.00 0.01 0.01 0.00 0.00 0.00 0.00 0.03 0.05 0.03 0.03 0.01 0.00 0.00 0.00 0.00 0.00 0.00 0.00 0.00
0.00 0.00 0.00 0.00 0.00 0.00 0.00 0.00 0.00 0.00 0.00 0.00 0.01 0.01 0.00 0.00 0.00 0.00 0.00 0.01 0.01 0.01 0.00 0.00 0.00 0.00 0.02 0.02 0.02 0.01 0.00 0.00 0.00 0.00 0.01 0.01 0.00 0.00
0.00 0.00 0.00 0.00 0.00 0.00 0.00 0.00 0.00 0.00 0.00 0.01 0.01 0.01 0.01 0.01 0.01 0.00 0.00 0.01 0.01 0.01 0.00 0.00 0.01 0.01 0.01 0.00 0.00 0.00 0.00 0.00 0.00 0.00 0.01 0.02 0.01 0.00
0.00 0.00 0.00 0.00 0.00 0.00 0.00 0.00 0.00 0.00 0.00 0.01 0.01 0.01 0.02 0.01 0.01 0.01 0.01 0.01 0.01 0.01 0.00 0.00 0.02 0.06 0.05 0.01 0.00 0.00 0.01 0.02 0.02 0.01 0.01 0.02 0.01 0.00
0.00 0.00 0.00 0.00 0.00 0.00 0.00 0.00 0.00 0.00 0.00 0.01 0.01 0.01 0.02 0.02 0.02 0.01 0.01 0.02 0.02 0.01 0.01 0.00 0.01 0.06 0.10 0.07 0.03 0.00 0.00 0.02 0.06 0.05 0.02 0.01 0.00 0.00
0.00 0.00 0.00 0.00 0.00 0.01 0.01 0.01 0.01 0.01 0.01 0.01 0.01 0.01 0.02 0.03 0.02 0.01 0.01 0.01 0.02 0.02 0.02 0.01 0.00 0.02 0.06 0.06 0.03 0.00 0.00 0.00 0.03 0.09 0.10 0.08 0.04 0.02
0.00 0.00 0.00 0.00 0.01 0.01 0.01 0.01 0.01 0.01 0.01 0.01 0.01 0.02 0.02 0.03 0.03 0.02 0.02 0.02 0.02 0.02 0.02 0.01 0.00 0.01 0.03 0.06 0.04 0.01 0.00 0.00 0.00 0.01 0.05 0.10 0.15 0.13
0.00 0.00 0.00 0.00 0.01 0.01 0.01 0.01 0.01 0.01 0.01 0.02 0.02 0.02 0.02 0.03 0.02 0.02 0.02 0.02 0.03 0.03 0.02 0.01 0.01 0.01 0.02 0.03 0.04 0.03 0.01 0.01 0.00 0.00 0.00 0.01 0.03 0.05
MSLP
1019.88 1020.36 1020.80 1021.21 1021.56 1021.85 1022.09 1022.27 1022.39 1022.46 1022.48 1022.44 1022.34 1022.17 1021.92 1021.60 1021.21 1020.76 1020.27 1019.76 1019.24 1018.72 1018.22 1017.74 1017.27 1016.81 1016.35 1015.89 1015.43 1014.97 1014.52 1014.08 1013.67 1013.29 1012.94 1012.61 1012.29 1011.98
1020.04 1020.46 1020.83 1021.16 1021.44 1021.67 1021.86 1022.02 1022.13 1022.21 1022.25 1022.23 1022.15 1021.99 1021.74 1021.41 1020.99 1020.51 1019.97 1019.41 1018.85 1018.30 1017.77 1017.27 1016.79 1016.32 1015.86 1015.39 1014.91 1014.42 1013.93 1013.46 1013.00 1012.57 1012.18 1011.81 1011.45 1011.11
1020.22 1020.56 1020.84 1021.08 1021.27 1021.43 1021.57 1021.68 1021.78 1021.86 1021.91 1021.91 1021.85 1021.70 1021.46 1021.12 1020.68 1020.16 1019.59 1018.98 1018.37 1017.78 1017.23 1016.70 1016.21 1015.73 1015.26 1014.77 1014.28 1013.77 1013.26 1012.76 1012.27 1011.80 1011.37 1010.96 1010.58 1010.21
1020.39 1020.65 1020.84 1020.98 1021.09 1021.17 1021.24 1021.30 1021.37 1021.44 1021.48 1021.50 1021.44 1021.31 1021.07 1020.72 1020.26 1019.72 1019.11 1018.46 1017.81 1017.18 1016.59 1016.04 1015.52 1015.02 1014.54 1014.05 1013.55 1013.03 1012.51 1011.98 1011.47 1010.98 1010.52 1010.09 1009.69 1009.31
1020.54 1020.71 1020.82 1020.87 1020.89 1020.90 1020.90 1020.91 1020.93 1020.97 1021.00 1021.00 1020.95 1020.81 1020.57 1020.22 1019.75 1019.18 1018.54 1017.87 1017.18 1016.51 1015.88 1015.30 1014.75 1014.23 1013.73 1013.23 1012.71 1012.19 1011.66 1011.13 1010.62 1010.12 1009.66 1009.22 1008.81 1008.42
1020.64 1020.74 1020.78 1020.76 1020.70 1020.63 1020.56 1020.51 1020.48 1020.48 1020.48 1020.46 1020.39 1020.24 1019.99 1019.63 1019.15 1018.57 1017.91 1017.21 1016.50 1015.80 1015.14 1014.52 1013.94 1013.39 1012.86 1012.34 1011.81 1011.28 1010.75 1010.22 1009.71 1009.22 1008.76 1008.33 1007.93 1007.55
1020.68 1020.73 1020.70 1020.62 1020.50 1020.37 1020.23 1020.12 1020.03 1019.97 1019.93 1019.87 1019.77 1019.60 1019.34 1018.97 1018.49 1017.91 1017.25 1016.55 1015.82 1015.10 1014.41 1013.76 1013.14 1012.56 1011.99 1011.44 1010.89 1010.34 1009.80 1009.27 1008.76 1008.28 1007.84 1007.42 1007.03 1006.66
1020.67 1020.66 1020.59 1020.46 1020.29 1020.10 1019.90 1019.73 1019.58 1019.46 1019.35 1019.25 1019.11 1018.92 1018.65 1018.27 1017.80 1017.23 1016.59 1015.89 1015.17 1014.45 1013.74 1013.06 1012.41 1011.78 1011.17 1010.58 1009.99 1009.42 1008.85 1008.31 1007.80 1007.32 1006.88 1006.48 1006.10 1005.75
1020.59 1020.54 1020.43 1020.26 1020.05 1019.81 1019.56 1019.33 1019.12 1018.94 1018.78 1018.62 1018.44 1018.23 1017.94 1017.57 1017.12 1016.58 1015.96 1015.29 1014.59 1013.87 1013.16 1012.46 1011.77 1011.11 1010.45 1009.80 1009.17 1008.54 1007.94 1007.37 1006.84 1006.35 1005.91 1005.51 1005.14 1004.79
1020.44 1020.36 1020.21 1020.01 1019.77 1019.49 1019.20 1018.92 1018.66 1018.42 1018.21 1018.00 1017.79 1017.55 1017.26 1016.90 1016.46 1015.96 1015.38 1014.75 1014.08 1013.38 1012.67 1011.97 1011.26 1010.55 1009.84 1009.14 1008.44 1007.76 1007.10 1006.48 1005.91 1005.39 1004.93 1004.52 1004.14 1003.80
1020.23 1020.11 1019.94 1019.72 1019.45 1019.15 1018.83 1018.51 1018.21 1017.92 1017.66 1017.42 1017.17 1016.91 1016.62 1016.27 1015.86 1015.39 1014.85 1014.26 1013.63 1012.96 1012.27 1011.56 1010.83 1010.09 1009.34 1008.58 1007.81 1007.07 1006.35 1005.67 1005.04 1004.47 1003.97 1003.53 1003.14 1002.78
1019.98 1019.83 1019.63 1019.39 1019.11 1018.79 1018.46 1018.12 1017.78 1017.47 1017.18 1016.90 1016.63 1016.35 1016.05 1015.70 1015.31 1014.86 1014.36 1013.80 1013.20 1012.56 1011.88 1011.18 1010.44 1009.68 1008.89 1008.08 1007.26 1006.45 1005.66 1004.92 1004.23 1003.60 1003.05 1002.57 1002.15 1001.76
1019.71 1019.53 1019.32 1019.07 1018.78 1018.46 1018.12 1017.77 1017.42 1017.09 1016.77 1016.47 1016.18 1015.87 1015.55 1015.20 1014.81 1014.36 1013.87 1013.34 1012.76 1012.13 1011.47 1010.77 1010.02 1009.24 1008.43 1007.58 1006.72 1005.86 1005.01 1004.20 1003.45 1002.77 1002.16 1001.63 1001.16 1000.75
1019.45 1019.25 1019.03 1018.78 1018.49 1018.18 1017.84 1017.50 1017.15 1016.80 1016.47 1016.15 1015.82 1015.49 1015.14 1014.76 1014.34 1013.88 1013.38 1012.84 1012.25 1011.63 1010.96 1010.26 1009.51 1008.72 1007.89 1007.02 1006.13 1005.23 1004.34 1003.48 1002.68 1001.93 1001.27 1000.68 1000.17 999.71
1019.23 1019.02 1018.80 1018.56 1018.28 1017.98 1017.65 1017.31 1016.97 1016.62 1016.27 1015.92 1015.56 1015.19 1014.80 1014.37 1013.90 1013.40 1012.86 1012.28 1011.66 1011.01 1010.33 1009.61 1008.86 1008.06 1007.22 1006.34 1005.43 1004.51 1003.59 1002.70 1001.85 1001.05 1000.34 999.70 999.13 998.63
1019.08 1018.88 1018.66 1018.42 1018.16 1017.87 1017.55 1017.22 1016.88 1016.52 1016.16 1015.78 1015.38 1014.95 1014.49 1014.00 1013.47 1012.89 1012.28 1011.64 1010.97 1010.28 1009.56 1008.82 1008.04 1007.23 1006.38 1005.50 1004.58 1003.65 1002.71 1001.80 1000.91 1000.08 999.32 998.63 998.02 997.47
1019.02 1018.82 1018.61 1018.37 1018.12 1017.84 1017.53 1017.20 1016.85 1016.48 1016.08 1015.67 1015.22 1014.73 1014.20 1013.63 1013.01 1012.36 1011.66 1010.95 1010.21 1009.45 1008.68 1007.90 1007.09 1006.26 1005.39 1004.50 1003.58 1002.64 1001.69 1000.76 999.85 998.99 998.19 997.46 996.79 996.20
1019.04 1018.84 1018.62 1018.39 1018.14 1017.85 1017.54 1017.20 1016.83 1016.43 1016.00 1015.54 1015.03 1014.48 1013.88 1013.22 1012.52 1011.78 1011.00 1010.21 1009.39 1008.56 1007.73 1006.90 1006.05 1005.18 1004.30 1003.39 1002.46 1001.51 1000.55 999.60 998.67 997.79 996.95 996.17 995.46 994.81
1019.10 1018.90 1018.68 1018.44 1018.17 1017.87 1017.53 1017.16 1016.75 1016.31 1015.84 1015.32 1014.76 1014.14 1013.48 1012.75 1011.98 1011.17 1010.32 1009.45 1008.56 1007.67 1006.78 1005.89 1005.00 1004.09 1003.18 1002.24 1001.29 1000.32 999.35 998.38 997.43 996.51 995.63 994.81 994.05 993.35
1019.18 1018.96 1018.73 1018.46 1018.16 1017.82 1017.44 1017.03 1016.57 1016.08 1015.55 1014.98 1014.37 1013.70 1012.98 1012.20 1011.38 1010.51 1009.62 1008.70 1007.76 1006.83 1005.89 1004.95 1004.01 1003.06 1002.10 1001.14 1000.15 999.16 998.16 997.17 996.19 995.24 994.33 993.47 992.66 991.91
1019.22 1018.99 1018.72 1018.42 1018.07 1017.68 1017.24 1016.77 1016.25 1015.70 1015.12 1014.49 1013.83 1013.12 1012.36 1011.56 1010.72 1009.83 1008.92 1007.98 1007.02 1006.06 1005.09 1004.11 1003.14 1002.15 1001.16 1000.16 999.14 998.12 997.09 996.06 995.05 994.07 993.12 992.22 991.37 990.57
1019.21 1018.94 1018.63 1018.27 1017.87 1017.41 1016.90 1016.36 1015.78 1015.16 1014.52 1013.85 1013.15 1012.42 1011.65 1010.84 1010.00 1009.13 1008.22 1007.30 1006.35 1005.38 1004.41 1003.42 1002.43 1001.42 1000.40 999.36 998.32 997.26 996.20 995.15 994.11 993.10 992.11 991.17 990.27 989.43
1019.11 1018.79 1018.43 1018.01 1017.54 1017.01 1016.43 1015.81 1015.16 1014.49 1013.80 1013.09 1012.36 1011.62 1010.86 1010.07 1009.26 1008.42 1007.55 1006.66 1005.75 1004.81 1003.85 1002.88 1001.88 1000.87 999.83 998.78 997.71 996.63 995.56 994.48 993.42 992.38 991.36 990.38 989.44 988.55
Thickness
5533 5527 5520 5514 5509 5502 5495 5488 5480 5474 5473 5471 5466 5463 5457 5452 5448 5445 5442 5439 5437 5436 5434 5432 5430 5428 5426 5424 5422 5419 5416 5414 5411 5409 5407 5406 5405 5405
5521 5515 5509 5502 5496 5490 5484 5476 5469 5461 5457 5456 5451 5447 5443 5438 5434 5430 5427 5424 5421 5418 5415 5413 5410 5407 5404 5401 5398 5395 5391 5388 5385 5383 5382 5381 5381 5380
5510 5504 5497 5491 5484 5478 5471 5464 5456 5448 5445 5444 5437 5432 5427 5422 5419 5414 5410 5407 5402 5398 5394 5391 5387 5384 5380 5376 5373 5370 5367 5364 5362 5361 5360 5360 5360 5361
5498 5492 5485 5479 5473 5466 5459 5452 5445 5437 5431 5429 5424 5417 5412 5406 5403 5398 5394 5389 5383 5377 5373 5369 5364 5359 5356 5352 5350 5348 5346 5345 5344 5343 5343 5344 5345 5347
5486 5480 5474 5467 5461 5454 5447 5439 5433 5427 5418 5413 5410 5403 5397 5391 5387 5382 5376 5369 5361 5355 5350 5346 5341 5337 5334 5332 5331 5330 5329 5329 5329 5330 5331 5333 5335 5338
5473 5468 5461 5455 5449 5442 5435 5427 5420 5412 5404 5398 5394 5389 5382 5376 5368 5363 5361 5351 5342 5334 5329 5326 5322 5319 5316 5314 5314 5314 5315 5316 5318 5321 5323 5325 5328 5331
5460 5454 5449 5444 5438 5431 5424 5415 5407 5398 5390 5383 5379 5373 5366 5358 5350 5343 5339 5336 5328 5317 5316 5311 5306 5305 5302 5300 5300 5302 5305 5308 5311 5314 5316 5319 5323 5326
5447 5441 5436 5430 5424 5417 5410 5404 5395 5386 5377 5369 5362 5354 5347 5338 5331 5324 5318 5316 5316 5304 5300 5301 5294 5295 5293 5290 5290 5293 5296 5300 5304 5306 5310 5314 5317 5321
5434 5428 5422 5415 5407 5401 5395 5388 5379 5369 5361 5353 5344 5335 5328 5320 5313 5308 5301 5297 5296 5290 5287 5294 5289 5288 5286 5283 5282 5285 5288 5292 5296 5300 5304 5307 5311 5315
5422 5415 5408 5401 5394 5389 5383 5374 5363 5352 5344 5335 5326 5319 5310 5304 5298 5294 5290 5288 5286 5279 5274 5279 5283 5282 5281 5277 5275 5278 5282 5285 5289 5292 5296 5300 5304 5309
5410 5403 5396 5388 5383 5378 5370 5359 5349 5338 5327 5319 5311 5304 5298 5292 5287 5283 5278 5274 5277 5275 5265 5265 5272 5272 5275 5274 5272 5272 5274 5277 5280 5285 5289 5294 5299 5304
5398 5390 5382 5376 5370 5362 5353 5343 5334 5325 5315 5306 5297 5290 5285 5279 5275 5270 5264 5261 5261 5263 5260 5256 5257 5254 5267 5273 5267 5265 5267 5271 5275 5280 5285 5290 5294 5299
5386 5377 5369 5363 5356 5347 5338 5328 5319 5313 5303 5293 5287 5282 5277 5272 5266 5260 5255 5250 5248 5249 5250 5245 5247 5244 5244 5259 5265 5263 5264 5268 5272 5277 5281 5287 5292 5297
5373 5364 5356 5349 5341 5332 5322 5313 5307 5299 5289 5283 5278 5274 5269 5264 5259 5254 5249 5245 5241 5241 5242 5237 5238 5239 5240 5247 5256 5263 5263 5265 5270 5276 5281 5286 5291 5296
5360 5352 5343 5334 5325 5314 5306 5300 5293 5285 5280 5275 5271 5267 5261 5257 5253 5250 5247 5243 5241 5239 5238 5236 5234 5236 5236 5241 5249 5256 5261 5267 5271 5276 5281 5285 5291 5295
5345 5335 5326 5316 5308 5301 5295 5288 5283 5278 5274 5270 5265 5261 5257 5252 5248 5244 5242 5240 5241 5243 5240 5237 5236 5234 5237 5241 5245 5254 5260 5265 5273 5275 5281 5288 5294 5298
5330 5318 5309 5301 5294 5290 5285 5281 5277 5273 5268 5264 5260 5256 5252 5248 5244 5240 5237 5235 5234 5238 5242 5242 5240 5239 5240 5242 5250 5259 5265 5270 5275 5279 5284 5293 5300 5303
5314 5302 5295 5288 5284 5281 5278 5275 5272 5268 5264 5259 5255 5251 5247 5244 5241 5239 5235 5233 5233 5236 5239 5242 5244 5247 5250 5254 5258 5264 5270 5275 5280 5284 5288 5296 5307 5310
5298 5291 5285 5281 5278 5275 5272 5270 5268 5265 5260 5256 5253 5249 5245 5242 5239 5238 5236 5234 5235 5237 5240 5243 5246 5248 5253 5263 5270 5272 5274 5281 5285 5291 5295 5299 5308 5315
5289 5283 5280 5277 5275 5272 5270 5267 5265 5263 5260 5256 5252 5249 5245 5242 5239 5238 5237 5236 5238 5242 5246 5249 5250 5252 5255 5263 5272 5280 5282 5284 5290 5296 5301 5305 5310 5316
5284 5280 5277 5275 5273 5271 5268 5266 5263 5261 5259 5256 5254 5251 5247 5244 5242 5241 5240 5241 5243 5246 5250 5255 5259 5261 5263 5268 5275 5286 5291 5293 5293 5297 5303 5308 5314 5319
5280 5278 5276 5274 5272 5270 5267 5265 5263 5262 5260 5258 5256 5254 5251 5248 5247 5246 5247 5247 5250 5252 5256 5261 5266 5268 5270 5273 5278 5286 5294 5299 5302 5304 5307 5309 5311 5318
5278 5277 5275 5274 5272 5270 5268 5266 5264 5263 5262 5260 5259 5258 5256 5255 5254 5253 5254 5255 5257 5260 5263 5267 5271 5273 5275 5277 5281 5287 5293 5299 5304 5308 5313 5316 5316 5317